Location: Alincthun
(50.7310°N, 1.8022°E)
Time: 17:04:16
(UTC+00:00)

Cosmos 2219 Rocket - Pass Details

Date: 17 February 2020
Orbit: 828 x 846 km, 71.0° (Epoch: 30 March)

Event Time Altitude Azimuth Distance (km) Brightness Sun altitude
Exits shadow 05:56:46 - 311° (NW) 2,630 4.3 -11.0°
Reaches altitude 10° 05:57:47 10° 320° (NW) 2,479 4.2 -10.8°
Maximum altitude 05:59:48 12° 341° (NNW) 2,351 4.3 -10.5°
Drops below altitude 10° 06:01:50 10° 2° (N) 2,479 4.6 -10.2°
Sets 06:06:13 0° 34° (NNE) 3,414 5.7 -9.5°
